FENGYUN 1C DEB, 29849

Orbit data source: Space-Track

FENGYUN 1C DEB, 29849 is space debris in SSO originally from a launch on Mon, 10 May 1999 UTC launched from the Taiyaun Space Center, China (TSC). Fengyun 1C debris stems from the Chinese weather satellite Fengyun-1C, which was intentionally destroyed by a Chinese anti-satellite missile in 2007. This event dramatically increased the amount of space debris, with thousands of trackable fragments posing hazards to satellites and human spaceflight. The Fengyun 1C debris cloud has become a focal point in discussions about space sustainability and the need for international regulations to prevent the creation of new debris.

Loading next visibility...
Identifier
29849, 1999-025ET
Orbit
SSO
Country
Flag of CNCN / PRC
Related business
Manufacturer
Unknown
Mission
Spacecraft
Bus & Motor
Unknown
Mass
Unknown
Launch date (UTC)
1999-05-10 (27 years ago)
Launch vehicle
Unknown
Launch site
Taiyaun Space Center, China (TSC)
Object type
Payload
Rocket body
Debris
Shape & HBR
Unknown shape, 0.1 m
Radar Cross Section
Small (<0.1 m²)

Expand to show TLE details & history
Last TLE update: 8 hours ago

TLE from 8 hours ago
0 FENGYUN 1C DEB
1 29849U 99025ET  25351.79956711  .00001098  00000-0  69027-3 0  9993
2 29849  99.0111  76.1401 0080349  30.4706  93.6240 14.04905953964416
Epoch: 2025-12-17T19:11Z
TLE epoch observation values (Epoch: 2025-12-17T19:11:22.598Z)
Latitude
54.09018°
Longitude
-105.78582°
Altitude
889.857 km
Speed
7.41 km/s
True Right ascension
17h 54m 53s
True Declination
53° 55' 47"
Sunlit
Object was in daylight at epoch
Visualization orbit readout
Latitude
Unknown
Longitude
Unknown
Altitude
Unknown
Speed
Unknown
Apparent Right ascension
Unknown
Apparent Declination
Unknown
Sunlit
N/A
Visualization observer readout
Local Sidereal Time
02:06:44
Azimuth
Unknown
Elevation
Unknown
Doppler factor
Unknown
Orbital elements
Apogee altitude
932.32 km
Perigee altitude
815.779 km
Semi-major axis
7,252.186 km
Eccentricity
0.00803
Inclination
99.0111°
RAAN
76.1401°
Arg. of periapsis
30.4706°
True anomaly
94.54227°
Mean anomaly
93.624°
Eccentric anomaly
94.0832°
Mean motion
3.51431 °/min
Orbital period
102.44 mins
BSTAR
0.00069027
Loading maneuver chart data...
Computing Atmospheric mass density...

Documentation

Showing up to 5 results
|